User: anonymous   Login
Location: Balmoral
(33.0667°S, 151.5833°E)
Time: 02:36:38
(UTC+00:00)
Language:

NOAA 6 - Orbit

View from above orbital plane
View from above orbital plane
View from above satellite
View from above satellite

Ground track
Ground track

The orbit data is extracted from the following two-line orbital elements,

1 11416U 79057A   20339.53704385  .00000058  00000-0  36910-4 0  9999
2 11416  98.6629 338.5280 0011356 108.5395 251.7024 14.33605859161509
Epoch (UTC): 04 December 2020 12:53:20
Eccentricity: 0.0011356
inclination: 98.6629°
perigee height: 771 km
apogee height: 788 km
right ascension of ascending node: 338.5280°
argument of perigee: 108.5395°
revolutions per day: 14.33605859
mean anomaly at epoch: 251.7024°
orbit number at epoch: 16150

The dashed part of the orbit path shows where the satellite is in the earth's shadow,  

DLR